Location: Unspecified
(0.0000°N, 0.0000°E)
Time: 06:59:18
(UTC+00:00)

Explorer 7 - Pass Details

Date: 19 November 2019
Orbit: 485 x 680 km, 50.3° (Epoch: 11 December)

Event Time Altitude Azimuth Distance (km) Brightness Sun altitude
Rises 09:15:30 0° 311° (NW) 2,535 9.8 48.5°
Reaches altitude 10° 09:17:44 10° 303° (WNW) 1,654 9.0 49.0°
Maximum altitude 09:21:14 39° 233° (SW) 731 7.8 49.7°
Drops below altitude 10° 09:24:48 10° 162° (SSE) 1,681 9.9 50.5°
Sets 09:27:06 0° 155° (SSE) 2,584 10.7 51.0°
